Location: Pettit
(39.0209°N, 79.7181°W)
Time: 12:26:37
(UTC+00:00)

ISS - Pass Details

Date: 24 April 2026
Orbit: 414 x 424 km, 51.6° (Epoch: 11 May)

Event Time Altitude Azimuth Distance (km) Brightness Sun altitude
Exits shadow 09:43:03 - 295° (WNW) 2,015 -0.7 -9.3°
Reaches altitude 10° 09:45:04 10° 318° (NW) 1,501 -1.1 -8.9°
Maximum altitude 09:46:38 13° 346° (NNW) 1,354 -1.0 -8.6°
Drops below altitude 10° 09:48:11 10° 14° (NNE) 1,505 -0.4 -8.4°
Sets 09:51:18 0° 45° (NE) 2,374 1.6 -7.8°
